FW5670 Weather Reports


time (UTC)temp
C
wind
direction
speed
KPH
gust
KPH
rain 1hr
cm
rain 24hr
cm
rain mn
cm
humidity
%
barometer
mb
20260504081547 7 0 0.0 0.0 0.00 0.00 0.00 66 1012.1
20260504044546 7 0 0.0 0.0 0.00 0.00 0.00 63 1011.5
20260504043043 7 0 0.0 0.0 0.00 0.00 0.00 63 1011.5
20260504041541 7 0 0.0 0.0 0.00 0.00 0.00 63 1011.2
20260504040059 7 0 0.0 0.0 0.00 0.00 0.00 63 1011.2
20260504034609 7 0 0.0 0.0 0.00 0.00 0.00 63 1011.3
20260504033041 6 0 0.0 0.0 0.00 0.00 0.00 64 1011.3
20260504031549 6 0 0.0 0.0 0.00 0.00 0.00 63 1011.4
20260504030058 7 0 0.0 0.0 0.00 0.00 0.00 62 1011.3
20260504024549 7 0 0.0 0.0 0.00 0.00 0.00 61 1011.4
20260504023044 8 0 0.0 0.0 0.00 0.00 0.00 61 1011.5
20260504021548 7 0 0.0 0.0 0.00 0.00 0.00 61 1011.5
20260504020051 7 0 0.0 0.0 0.00 0.00 0.00 59 1011.4
20260504014542 7 0 0.0 0.0 0.00 0.00 0.00 58 1011.3
20260504013048 7 0 0.0 0.0 0.00 0.00 0.00 57 1011.2
20260504011543 8 0 0.0 0.0 0.00 0.00 0.00 54 1011.2
20260504010043 8 0 0.0 0.0 0.00 0.00 0.00 53 1010.8
20260504004540 9 0 0.0 0.0 0.00 0.00 0.00 50 1010.7
20260504003048 10 0 0.0 0.0 0.00 0.00 0.00 47 1010.4
20260504001600 10 0 0.0 0.0 0.00 0.00 0.00 46 1010.2
20260504000059 11 0 0.0 0.0 0.00 0.00 0.00 43 1010.1
20260503234544 12 0 0.0 0.0 0.00 0.00 0.00 41 1009.9
20260503233049 12 0 0.0 1.6 0.00 0.00 0.00 39 1009.8
20260503231548 13 0 0.0 3.2 0.00 0.00 0.00 38 1009.6
20260503230042 13 0 0.0 9.7 0.00 0.00 0.00 38 1009.4
20260503224548 13 0 1.6 8.0 0.00 0.00 0.00 34 1009.4
20260503223044 13 144 0.0 4.8 0.00 0.00 0.00 34 1009.3
20260503221547 13 129 1.6 4.8 0.00 0.00 0.00 33 1009.3
20260503220053 13 0 0.0 14.5 0.00 0.00 0.00 34 1009.3
20260503214559 13 0 0.0 6.4 0.00 0.00 0.00 37 1009.2
20260503213048 13 161 0.0 6.4 0.00 0.00 0.00 35 1009.2
20260503211553 13 141 1.6 11.3 0.00 0.00 0.00 32 1009.2
20260503210044 13 128 1.6 6.4 0.00 0.00 0.00 31 1009.2
20260503204557 13 136 1.6 11.3 0.00 0.00 0.00 32 1009.1
20260503203051 13 131 1.6 8.0 0.00 0.00 0.00 32 1009.2
20260503201545 12 150 1.6 6.4 0.00 0.00 0.00 33 1009.2
20260503200048 13 133 1.6 8.0 0.00 0.00 0.00 35 1009.2
20260503194546 12 150 0.0 9.7 0.00 0.00 0.00 35 1009.4
20260503193107 12 160 1.6 4.8 0.00 0.00 0.00 34 1009.7
20260503191553 13 155 1.6 9.7 0.00 0.00 0.00 36 1009.7
20260503190105 12 147 1.6 6.4 0.00 0.00 0.00 36 1009.7
20260503184545 12 64 3.2 6.4 0.00 0.00 0.00 36 1009.7
20260503183101 12 158 3.2 9.7 0.00 0.00 0.00 37 1009.8
20260503181548 12 144 1.6 4.8 0.00 0.00 0.00 39 1009.9
20260503180055 11 159 1.6 6.4 0.00 0.00 0.00 40 1010.0
20260503174540 11 134 3.2 11.3 0.00 0.00 0.00 40 1010.2
20260503173105 11 103 3.2 9.7 0.00 0.00 0.00 46 1010.1
20260503171553 10 161 1.6 9.7 0.00 0.00 0.00 43 1010.4